Regional Weather Roundup
Issued by NWS Grand Forks, ND

Home | Current Version | Previous Version | Text Only | Print | Product List | Glossary On
Versions: 1 2 3 4 5 6 7 8 9 10 11 12 13 14 15 16 17 18 19 20 21 22 23 24 25 26 27 28 29 30 31 32 33 34 35 36 37 38 39 40 41 42 43 44 45 46 47 48 49 50
000
ASUS43 KFGF 300531
RWRFGF
PRAIRIE TO PINES  WEATHER ROUNDUP
NATIONAL WEATHER SERVICE EASTERN NORTH DAKOTA/GRAND FORKS ND
1200 AM CDT TUE JUN 30 2015

 **SATELLITE DATA USED TO AUGMENT SKY COVER AT AUTOMATED STATIONS**
 *****  WEATHER ACROSS EASTERN NORTH DAKOTA  *****

CITY           SKY/WX    TMP DP  RH WIND       PRES   REMARKS
GRAND FORKS    PTCLDY    59  57  93 N5        29.92R
GRAND FRKS AFB PTCLDY    61  59  92 N6        29.93S
GRAND FRKS NWS   N/A     61 N/A N/A MISG        N/A
DEVILS LAKE    CLOUDY    64  57  77 E6        29.96R
FARGO          CLEAR     63  59  87 N6        29.91R
WAHPETON ARPT  CLEAR     63  59  88 NW5       29.92R
$$

 ***** WEATHER ACROSS CENTRAL AND WESTERN NORTH DAKOTA  *****

CITY           SKY/WX    TMP DP  RH WIND       PRES   REMARKS
BISMARCK       MOCLDY    73  65  75 NE7       29.93R
MINOT          MOCLDY    70  62  76 E6        29.95R
JAMESTOWN      CLOUDY    67  61  81 E7        29.94R
MINOT AFB      CLOUDY    71  67  87 NE8       29.96R
GARRISON         N/A     74  66  76 SE3       29.94R
WILLISTON      CLOUDY    72  54  53 N17       30.00R HAZE
DICKINSON      CLOUDY    73  65  75 N10       29.95R
HETTINGER      MOCLDY    65  61  87 NW3       29.95F
$$

 *****  OTHER AIRPORT OBSERVATIONS IN OUR AREA  *****

CITY           SKY/WX    TMP DP  RH WIND       PRES   REMARKS
WALHALLA       FAIR      61  61 100 MISG      29.96R FOG
GRAFTON AIRPOR FAIR      61  61 100 N5        29.94S
VALLEY CITY AR CLOUDY    64  64 100 NE6       29.95R
CANDO          CLOUDY    63  59  88 NE5       29.98R
CAVALIER APRT  FAIR      63  61  94 N3        29.95R
GWINNER        NOT AVBL
ROLLA          FAIR      59  59 100 CALM      30.00R
 ***** THE ABOVE OBSERVATIONS ARE NON NWS ARE NOT QUALITY
       CONTROLLED AND MAY MIS-REPORT RAIN FOR SNOW...
$$

  *****  WEATHER ACROSS NORTHERN MINNESOTA  *****

CITY           SKY/WX    TMP DP  RH WIND       PRES   REMARKS
FLAG ISLAND    CLEAR     63  54  72 NE8       29.94S
WARROAD        CLEAR     66  61  82 NE12G17   29.94S
ROSEAU         CLEAR     61  55  82 NE3       29.94R
HALLOCK        CLEAR     57  55  94 N5        29.93S
THF RVR FALLS  CLEAR     63  59  88 NE3       29.93S
BAUDETTE       CLEAR     61  55  81 NE6       29.93R
WASKISH        CLEAR     61  55  82 N5        29.93R
CROOKSTON      CLEAR     63  61  94 NE5       29.93R
$$
  *****  WEATHER ACROSS CENTRAL AND WEST MINNESOTA  *****

CITY           SKY/WX    TMP DP  RH WIND       PRES   REMARKS
FOSSTON        CLEAR     57  54  88 CALM      29.94R
BEMIDJI        CLEAR     57  54  90 CALM      29.92F
PARK RAPIDS    CLEAR     67  57  70 N7        29.92R
ELBOW LAKE     FAIR      65  63  94 NW6       29.91R
WADENA         CLEAR     63  59  88 N3        29.91R
DETROIT LAKES  CLEAR     64  59  82 NE5       29.93S
MOORHEAD       CLEAR     63  61  94 N6        29.92S
FERGUS FALLS   CLEAR     64  64 100 N3        29.90S
MORRIS MN      CLEAR     64  63  94 NW6       29.90S
STAPLES        CLEAR     63  57  82 N5        29.90R
$$
  *****  WEATHER ELSEWHERE ACROSS MINNESOTA  *****

CITY           SKY/WX    TMP DP  RH WIND       PRES   REMARKS
DULUTH         MOCLDY    63  57  81 N7        29.86S
INTRNTL FALLS  CLEAR     62  53  72 NE9       29.93R
ELY            CLEAR     61  55  82 CALM      29.90R
CLOQUET        CLEAR     59  55  88 N5        29.87R
WHEATON        CLEAR     63  61  94 NW5       29.93R
BRAINERD       CLEAR     67  58  72 NE7       29.89R
HIBBING        CLEAR     55  53  93 NW5       29.89R
ALEXANDRIA     CLEAR     67  64  90 NW6       29.91S
SAINT CLOUD    CLEAR     64  60  87 N5        29.85R
MINNEAPOLIS    PTCLDY    66  63  90 CALM      29.84R
$$

  *****  WEATHER ACROSS SOUTH DAKOTA  *****

CITY           SKY/WX    TMP DP  RH WIND       PRES   REMARKS
SIOUX FALLS    CLEAR     68  63  84 NW7       29.92R
BROOKINGS      CLEAR     66  59  77 NW3       29.95S
WATERTOWN      CLOUDY    65  61  87 N3        29.94R
HURON          MOCLDY    72  65  78 E5        29.91S
SISSETON         N/A     65  61  87 N8        29.92R
ABERDEEN       PTCLDY    67  62  84 E5        29.92S
MITCHELL       MOCLDY    73  65  75 SW5       29.92R
PIERRE         LGT RAIN  73  60  63 CALM      29.91S
MOBRIDGE       MOCLDY    75  62  64 SE8       29.89S
RAPID CITY     CLEAR     66  61  84 NW3       30.03S
$$

  *****  SOME WEATHER IN NEARBY STATES *****

CITY           SKY/WX    TMP DP  RH WIND       PRES   REMARKS
GLASGOW MT     NOT AVBL
GREAT FALLS MT LGT RAIN  70  61  73 S15       30.01F
CHEYENNE WY    CLEAR     64  49  57 W9        30.28R
SCOTTSBLUFF NE CLEAR     68  57  68 E7        30.12S
OMAHA NE       CLOUDY    71  64  78 CALM      29.91F
DES MOINES IA  CLOUDY    71  63  75 W3        29.87F
DAVENPORT IA   CLOUDY    65  63  93 W6        29.85R
CHICAGO IL     MOCLDY    64  63  96 S5        29.78F
EAU CLAIRE WI  FOG       58  57  97 CALM      29.82F VSB 1/4
LA CROSSE WI   CLEAR     61  58  90 CALM      29.83R
$$

  *****  SOME NATIONAL WEATHER *****

CITY           SKY/WX    TMP DP  RH WIND       PRES   REMARKS
LA GUARDIA NY  PTCLDY    72  56  57 S7        29.94S
RALEIGH NC     PTCLDY    74  66  76 S5        29.95F
ATLANTA GA     PTCLDY    74  65  73 SW6       30.02R
NEW ORLEANS LA MOCLDY    79  74  84 SW9       30.04R
OKLAHOMA CITY  PTCLDY    74  61  63 NE9       30.00R
ALBUQUERQUE NM MOCLDY    76  48  37 E20G29    30.21R
SALT LAKE CITY MOCLDY    91  50  24 SE10      30.01R
LOS ANGELES CA PTCLDY    68  58  70 W7        29.91R
BOISE ID       MOCLDY    89  54  30 CALM      29.92R
SEATTLE WA     PTCLDY    72  60  66 S5        30.03R
$$

*** WEATHER ACROSS MANITOBA...SASKATCHEWAN AND ONTARIO ***
                ***ONTARIO***

CITY           SKY/WX    TMP DP  RH WIND       PRES   REMARKS
GERALDTON      CLOUDY    48  46  93 N10       29.93R FOG
THUNDER BAY    CLOUDY    55  52  88 N7        29.88R
SIOUX LOOKOUT  PTCLDY    46  45  93 CALM      29.98R
TORONTO        PTCLDY    63  57  82 SE5       29.88S
BIG TROUT LK   CLEAR     48  39  71 E5        30.03R
PICKLE LAKE    NOT AVBL
DRYDEN         CLEAR     55  50  82 E6        29.98R
KENORA         CLEAR     59  54  82 NE6       29.97S
$$
                *** MANITOBA***

CITY           SKY/WX    TMP DP  RH WIND       PRES   REMARKS
BRANDON        CLOUDY    57  55  94 NE5       29.99R
DAUPHIN        CLEAR     59  57  94 SW3       29.99R FOG
ISLAND LAKE    PTCLDY    54  48  82 N2        30.01F
PILOT MOUND      N/A    N/A N/A N/A NE6         N/A
THE PAS        PTCLDY    59  55  88 S7        30.00S
THOMPSON       PTCLDY    52  46  82 SE3       30.00F
WINNIPEG       CLEAR     59  57  94 N5        29.96R
LYNN LAKE      PTCLDY    57  55  94 SE5       29.99S
CHURCHILL      PTCLDY    52  43  71 S8        29.98S
GILLAM         PTCLDY    50  39  66 S6        30.02S
$$
                ***SASKATCHEWAN***

CITY           SKY/WX    TMP DP  RH WIND       PRES   REMARKS
ESTEVAN          N/A     64  59  82 N7        29.98F SMOKE
KINDERSLEY     LGT RAIN  63  59  88 E6        30.02F
LLOYDMINSTER   LGT RAIN  64  57  77 W7        30.01S
PRINCE ALBERT  SMOKE     59  55  88 CALM      29.97F VSB 1
REGINA         CLOUDY    66  55  68 N5        30.00S SMOKE
YORKTON        CLOUDY    61  57  88 CALM      29.98F FOG
N. BATTLEFORD  CLEAR     63  57  82 CALM      30.01F
LA RONGE       SMOKE     57  54  88 W2        29.95S VSB 3/4
SASKATOON        N/A     63  55  77 CALM      30.01F SMOKE
SWIFT CURRENT  HAZE      66  50  55 SE10      30.03S VSB 3/4
$$
NOTE: THESE ARE AUTOMATED STATIONS WITH LIMITED QUALITY CONTROL
      "FAIR" INDICATES FEW OR NO CLOUDS BELOW 12,000 FEET WITH NO
      SIGNIFICANT WEATHER AND/OR OBSTRUCTIONS TO VISIBILITY.
      SKY/WX - SKY CONDITION AND SIGNIFICANT WEATHER.
      TMP - AIR TEMPERATURE.    DP   - DEWPOINT TEMPERATURE.
      RH  - RELATIVE HUMIDITY.  PRES - PRESSURE.
      HX  - HEAT INDEX.         WCI  - WIND CHILL INDEX.
$


USA.gov is the U.S. government's official web portal to all federal, state and local government web resources and services.